(59428) = 1999 GK7 = 2001 XA61

Discovered at Anderson Mesa on 1999-04-07 by LONEOS.

Orbit

Orbit type: Main Belt

Note: WebGL enabled browser required.

epoch2023-09-13.0
epoch JD2460200.5
perihelion date2021-10-05.69156
perihelion JD2459493.19156
argument of perihelion (°)331.86829
ascending node (°)222.02012
inclination (°)2.34892
eccentricity0.1428607
perihelion distance (AU)2.0720288
Tisserand w.r.t. Jupiter3.5
ΔV w.r.t. Earth (km/sec)9.0
semimajor axis (AU)2.4173770
mean anomaly (°)185.47958
mean daily motion (°/day)0.26223300
aphelion distance (AU)2.763
period (years)3.76
P-vector [x]-0.97049987
P-vector [y]-0.21280799
P-vector [z]-0.11332595
Q-vector [x]0.23953567
Q-vector [y]-0.90453141
Q-vector [z]-0.35276848
absolute magnitude16.14
phase slope0.15
uncertainty0
referenceMPEC 2024-A158
observations used854
oppositions18
arc length (days)11074
first opposition used1993
last opposition used2024
residual rms (arc-secs)0.71
perturbers coarse indicatorM-v
perturbers precise indicator003Ek
first observation date used1993-09-18.0
last observation date used2024-01-13.0
computer nameMPCLINUX
JD of orbit computation2456937.348616
perihelion JD uncertainty (days)3.7992E-05
argument of perihelion uncertainty (°)7.7618E-05
ascending node uncertainty (°)7.6882E-05
inclination uncertainty (°)3.7294E-06
eccentricity uncertainty 3.7520E-08
perihelion distance uncertainty (AU)8.9603E-08
Minimum Orbit Intersection Distances (in AU)
for orbit epoch: 2460200.5, reference: E2024-AF8
Mercury1.64731
Venus1.35367
Earth1.07032
Mars0.43836
Jupiter2.19373
Saturn6.47147
Uranus16.3219
Neptune27.0852

Observations

885 total observations over interval: 1993 09 18.47581 – 2024 01 13.109832
These data are available for download (format description).

Date (UT) J2000 RA J2000 Dec Magn Location Ref
1993 09 18.47581 02 05 39.55 +14 03 00.6 21.0 V 691 – Steward Observatory, Kitt Peak-Spacewatch MPS 79555
1993 09 18.48451 02 05 39.29 +14 02 59.3 20.7 V 691 – Steward Observatory, Kitt Peak-Spacewatch MPS 79555
1993 09 18.49315 02 05 39.01 +14 02 57.3 21.8 V 691 – Steward Observatory, Kitt Peak-Spacewatch MPS 79555
1999 04 07.32403 12 52 58.49 -07 51 23.4 17.8 R 699 – Lowell Observatory-LONEOS MPS 4575
1999 04 07.33931 12 52 57.71 -07 51 17.4   699 – Lowell Observatory-LONEOS MPS 4575
1999 04 07.35459 12 52 56.84 -07 51 10.8   699 – Lowell Observatory-LONEOS MPS 4575
1999 04 10.21222 12 50 34.82 -07 31 25.3 18.0 R 699 – Lowell Observatory-LONEOS MPS 4575
1999 04 10.23770 12 50 33.47 -07 31 14.6   699 – Lowell Observatory-LONEOS MPS 4575
1999 04 10.26318 12 50 32.31 -07 31 05.2   699 – Lowell Observatory-LONEOS MPS 4575
1999 04 14.36992 12 47 13.70 -07 02 49.3 18.5   704 – Lincoln Laboratory ETS, New Mexico MPS 4876
1999 04 14.37934 12 47 13.39 -07 02 47.3 18.5   704 – Lincoln Laboratory ETS, New Mexico MPS 4876
1999 04 14.39090 12 47 12.67 -07 02 42.6 18.3   704 – Lincoln Laboratory ETS, New Mexico MPS 4876
1999 04 14.40269 12 47 12.19 -07 02 37.7 18.3   704 – Lincoln Laboratory ETS, New Mexico MPS 4876
1999 04 15.21952 12 46 34.64 -06 57 04.9 17.8   704 – Lincoln Laboratory ETS, New Mexico MPS 4876
1999 04 15.23652 12 46 33.83 -06 56 58.1 17.8   704 – Lincoln Laboratory ETS, New Mexico MPS 4876
1999 04 15.25356 12 46 32.90 -06 56 51.8 18.6   704 – Lincoln Laboratory ETS, New Mexico MPS 4876
1999 04 15.27052 12 46 32.11 -06 56 44.7 18.6   704 – Lincoln Laboratory ETS, New Mexico MPS 4876
1999 04 15.28754 12 46 31.19 -06 56 35.4 19.0   704 – Lincoln Laboratory ETS, New Mexico MPS 4876
2001 11 20.39452 05 20 51.85 +21 16 25.0 20.0   704 – Lincoln Laboratory ETS, New Mexico MPS 48592
2001 11 20.40919 05 20 50.99 +21 16 22.7 20.1   704 – Lincoln Laboratory ETS, New Mexico MPS 48592
2001 11 20.42395 05 20 50.19 +21 16 21.1 20.1   704 – Lincoln Laboratory ETS, New Mexico MPS 48592
2001 11 21.37166 05 20 00.75 +21 14 28.7 19.8   704 – Lincoln Laboratory ETS, New Mexico MPS 48592
2001 11 21.38634 05 19 59.90 +21 14 27.0 20.3   704 – Lincoln Laboratory ETS, New Mexico MPS 48592
2001 11 21.40101 05 19 59.01 +21 14 25.7 20.8   704 – Lincoln Laboratory ETS, New Mexico MPS 48592
2001 11 21.41570 05 19 58.31 +21 14 23.0 19.7   704 – Lincoln Laboratory ETS, New Mexico MPS 48592
2001 11 21.43039 05 19 57.51 +21 14 21.3 19.9   704 – Lincoln Laboratory ETS, New Mexico MPS 48592
2001 12 10.30495 05 00 33.23 +20 32 19.5 19.5   704 – Lincoln Laboratory ETS, New Mexico MPS 45162
2001 12 10.31999 05 00 32.19 +20 32 17.4 19.1   704 – Lincoln Laboratory ETS, New Mexico MPS 45162
2001 12 10.33504 05 00 31.17 +20 32 14.6 19.1   704 – Lincoln Laboratory ETS, New Mexico MPS 45162
2001 12 14.24369 04 56 14.41 +20 23 00.7 19.6   704 – Lincoln Laboratory ETS, New Mexico MPS 45162
2001 12 14.27440 04 56 12.32 +20 22 54.9 19.4   704 – Lincoln Laboratory ETS, New Mexico MPS 45162
2001 12 14.28264 04 56 11.77 +20 22 54.6 19.6 V 691 – Steward Observatory, Kitt Peak-Spacewatch MPS 48592
2001 12 14.28955 04 56 11.34 +20 22 53.0 19.2   704 – Lincoln Laboratory ETS, New Mexico MPS 45162
2001 12 14.30601 04 56 10.20 +20 22 51.3 19.4 V 691 – Steward Observatory, Kitt Peak-Spacewatch MPS 48592
2001 12 14.32892 04 56 08.64 +20 22 48.3 19.2 V 691 – Steward Observatory, Kitt Peak-Spacewatch MPS 48592
2001 12 17.22775 04 53 01.88 +20 16 01.7 18.7   704 – Lincoln Laboratory ETS, New Mexico MPS 45162
2001 12 17.24329 04 53 00.85 +20 16 00.4 19.2   704 – Lincoln Laboratory ETS, New Mexico MPS 45162
2001 12 17.25857 04 52 59.84 +20 15 58.3 19.0   704 – Lincoln Laboratory ETS, New Mexico MPS 45162
2001 12 17.27366 04 52 58.84 +20 15 56.1 19.0   704 – Lincoln Laboratory ETS, New Mexico MPS 45162
2001 12 17.28876 04 52 57.86 +20 15 54.1 19.1   704 – Lincoln Laboratory ETS, New Mexico MPS 45162
2002 01 09.19980 04 33 44.32 +19 33 48.7 20.0   704 – Lincoln Laboratory ETS, New Mexico MPS 54345
2002 01 09.21571 04 33 43.68 +19 33 47.4 19.9   704 – Lincoln Laboratory ETS, New Mexico MPS 54345
2002 01 09.23136 04 33 43.10 +19 33 46.3 19.7   704 – Lincoln Laboratory ETS, New Mexico MPS 54345
2002 01 09.24690 04 33 42.62 +19 33 44.5 19.9   704 – Lincoln Laboratory ETS, New Mexico MPS 54345
2003 05 05.38974 16 27 53.29 -20 37 16.2 19.4   704 – Lincoln Laboratory ETS, New Mexico MPS 77817
2003 05 05.40473 16 27 52.64 -20 37 12.9 19.1   704 – Lincoln Laboratory ETS, New Mexico MPS 77817
2003 05 05.41735 16 27 52.05 -20 37 10.6 19.7   704 – Lincoln Laboratory ETS, New Mexico MPS 77817
2003 05 05.42972 16 27 51.50 -20 37 07.9 18.7   704 – Lincoln Laboratory ETS, New Mexico MPS 77817
2003 05 05.44225 16 27 50.93 -20 37 05.7 19.1   704 – Lincoln Laboratory ETS, New Mexico MPS 77817
2003 05 12.48379 16 22 14.98 -20 12 32.6 19.7   608 – Haleakala-AMOS MPS 79555
2003 05 12.49464 16 22 14.37 -20 12 30.3 19.3   608 – Haleakala-AMOS MPS 79555
2003 05 12.50559 16 22 13.77 -20 12 28.5 20.2   608 – Haleakala-AMOS MPS 79555
2003 05 29.27884 16 06 22.39 -19 07 15.5 18.2   704 – Lincoln Laboratory ETS, New Mexico MPS 79555
2003 05 29.28925 16 06 21.83 -19 07 13.1 18.5   704 – Lincoln Laboratory ETS, New Mexico MPS 79555
2003 05 29.32129 16 06 19.88 -19 07 05.2 18.7   704 – Lincoln Laboratory ETS, New Mexico MPS 79555
2003 06 03.31537 16 01 41.50 -18 48 05.6 19.0   704 – Lincoln Laboratory ETS, New Mexico MPS 79555
2003 06 03.32556 16 01 40.79 -18 48 03.6 19.2   704 – Lincoln Laboratory ETS, New Mexico MPS 79555
2003 06 03.33574 16 01 40.26 -18 48 02.0 19.2   704 – Lincoln Laboratory ETS, New Mexico MPS 79555
2003 06 03.34590 16 01 39.52 -18 47 59.8 18.4   704 – Lincoln Laboratory ETS, New Mexico MPS 79555
2004 09 15.31468 00 21 57.08 +04 57 00.2 19.8 V 691 – Steward Observatory, Kitt Peak-Spacewatch MPS 113857
2004 09 15.34325 00 21 55.58 +04 56 50.5 20.2 V 691 – Steward Observatory, Kitt Peak-Spacewatch MPS 113857
2004 09 15.36999 00 21 54.20 +04 56 41.2 20.0 V 691 – Steward Observatory, Kitt Peak-Spacewatch MPS 113857
2004 09 17.28512 00 20 16.54 +04 45 24.2 20.4   704 – Lincoln Laboratory ETS, New Mexico MPS 113857
2004 09 17.29681 00 20 15.93 +04 45 20.9 20.3   704 – Lincoln Laboratory ETS, New Mexico MPS 113857
2004 09 17.30849 00 20 15.28 +04 45 15.5 20.4   704 – Lincoln Laboratory ETS, New Mexico MPS 113857
2004 09 17.32017 00 20 14.63 +04 45 11.5 20.2   704 – Lincoln Laboratory ETS, New Mexico MPS 113857
2004 10 24.238447 23 50 59.565 +01 03 22.15 20.45 V 645 – Apache Point-Sloan Digital Sky Survey MPS 389589
2004 10 24.241919 23 50 59.453 +01 03 21.12 21.40   645 – Apache Point-Sloan Digital Sky Survey MPS 389589
2004 12 13.106437 23 53 50.458 +00 26 38.89 21.50 V 645 – Apache Point-Sloan Digital Sky Survey MPS 389589
2004 12 13.109909 23 53 50.578 +00 26 39.52 22.26   645 – Apache Point-Sloan Digital Sky Survey MPS 389589
2005 10 29.45818 07 32 55.82 +19 37 08.0 20.2 V G96 – Mt. Lemmon Survey MPS 148749
2005 10 29.46436 07 32 56.04 +19 37 07.1 20.0 V G96 – Mt. Lemmon Survey MPS 148749
2005 10 29.47065 07 32 56.32 +19 37 06.0 20.6 V G96 – Mt. Lemmon Survey MPS 148749
2005 10 29.47691 07 32 56.58 +19 37 05.1 20.3 V G96 – Mt. Lemmon Survey MPS 148749
2005 11 30.43941 07 41 36.24 +18 29 03.1 19.9 V G96 – Mt. Lemmon Survey MPS 153023
2005 11 30.44551 07 41 36.16 +18 29 02.9 20.0 V G96 – Mt. Lemmon Survey MPS 153023
2005 11 30.45170 07 41 36.06 +18 29 03.1 19.9 V G96 – Mt. Lemmon Survey MPS 153023
2005 11 30.45782 07 41 35.98 +18 29 02.1 20.2 V G96 – Mt. Lemmon Survey MPS 153023
2005 12 27.34780 07 24 49.28 +18 28 19.2 19.2 V G96 – Mt. Lemmon Survey MPS 157285
2005 12 27.35444 07 24 48.92 +18 28 19.5 19.1 V G96 – Mt. Lemmon Survey MPS 157285
2005 12 27.36111 07 24 48.49 +18 28 19.9 19.0 V G96 – Mt. Lemmon Survey MPS 157285
2005 12 30.33818 07 21 49.39 +18 31 15.4 19.0   704 – Lincoln Laboratory ETS, New Mexico MPS 158478
2005 12 30.35165 07 21 48.53 +18 31 15.9 19.2   704 – Lincoln Laboratory ETS, New Mexico MPS 158478
2005 12 30.37884 07 21 46.79 +18 31 17.9 19.6   704 – Lincoln Laboratory ETS, New Mexico MPS 158478
